Hourly Data Report for January 03, 2022

BANCROFT AUTO
ONTARIO
Current Station Operator: ECCC - MSC

45°04'17.000" N
77°52'44.000" W
330.70 m
616I001
71294
WRK

Download Data

Hourly Data (January 2022)
Hourly Data Report for January 3, 2022
TIME
LST
Temp Definition
°C
Dew Point Definition
°C
Rel Hum Definition
%
Precip. Amount Definition
mm

Wind Dir Definition
10's deg

Wind Spd Definition
km/h
Visibility Definition
km
Stn Press Definition
kPa
Hmdx Definition


Wind Chill Definition


Weather Definition


00:00 -19.7 -21.9 83 0.0 0 1   98.12   -21 LegendNANA
01:00 -19.9 -22.0 83 0.0 32 5   98.15   -24 LegendNANA
02:00 -20.7 -22.7 84 0.0 35 3   98.26   -23 LegendNANA
03:00 -21.5 -23.8 82 0.0 27 1   98.37   -22 LegendNANA
04:00 -22.3 -24.7 81 0.0   0   98.44     LegendNANA
05:00 -22.7 -24.9 82 0.0 23 1   98.51   -24 LegendNANA
06:00 -23.2 -25.4 81 0.0 29 1   98.50   -24 LegendNANA
07:00 -23.8 -26.1 81 0.0 31 1   98.49   -25 LegendNANA
08:00 -24.0 -26.4 80 0.0   0   98.48     LegendNANA
09:00 -21.0 -23.2 82 0.0 36 5   98.48   -25 LegendNANA
10:00 -17.9 -21.1 76 0.0 11 2   98.61   -19 LegendNANA
11:00 -14.9 -21.2 59 0.0 30 2   98.55   -16 LegendNANA
12:00 -11.7 -19.8 51 0.0 31 5   98.49   -15 LegendNANA
13:00 -9.8 -20.1 43 0.0 31 3   98.38   -12 LegendNANA
14:00 -8.3 -19.5 40 0.0 17 5   98.36   -11 LegendNANA
15:00 -7.9 -18.5 42 0.0 23 5   98.34   -11 LegendNANA
16:00 -9.3 -17.4 52 0.0 29 2   98.32   -10 LegendNANA
17:00 -12.8 -17.3 69 0.0 20 3   98.32   -15 LegendNANA
18:00 -15.0 -17.6 80 0.0   0   98.33     LegendNANA
19:00 -14.5 -16.7 84 0.0   0   98.37     LegendNANA
20:00 -10.5 -16.3 63 0.0 19 6   98.37   -14 LegendNANA
21:00 -10.3 -15.9 63 0.0 19 6   98.30   -14 LegendNANA
22:00 -10.1 -16.0 62 0.0 20 10   98.27   -15 LegendNANA
23:00 -9.9 -15.6 63 0.0 20 9   98.29   -15 LegendNANA

Notes on Data Quality.

Legend

  • E = Estimated
  • M = Missing
  • NA = Not Available*
  • [empty] = Indicates an unobserved value
Date modified: